contact:dominique.lefevre@mio.osupytheas.fr, maurice.libes@osupytheas.fr, didier.mallarino@osupytheas.fr
Project:EMSO http://www.emso-fr.org/EMSO-France
Depth: 2436.0 m
Title:EMSO Ligure Ouest : Data MII capteur MICROCAT
DateTime_Computer,Latitude,Longitude,Temperature,Conductivity,Pressure,DateTime_Instrument
DateTime_Computer,Latitude,Longitude,degC,S m-1,dbar,DateTime_Instrument
2021-09-22T00:01:55Z,42.805,6.029,13.3001,4.60042,2470.46,2021-9-22T02:03:17Z
2021-09-22T00:04:58Z,42.805,6.029,13.3007,4.60072,2470.474,2021-9-22T02:06:20Z
2021-09-22T00:08:01Z,42.805,6.029,13.3010,4.60082,2470.45,2021-9-22T02:09:23Z
2021-09-22T00:11:04Z,42.805,6.029,13.2998,4.60115,2470.413,2021-9-22T02:12:26Z
2021-09-22T00:14:07Z,42.805,6.029,13.3006,4.60053,2470.427,2021-9-22T02:15:29Z
2021-09-22T00:17:11Z,42.805,6.029,13.3019,4.60104,2470.39,2021-9-22T02:18:32Z
2021-09-22T00:20:14Z,42.805,6.029,13.3032,4.60100,2470.45,2021-9-22T02:21:35Z
2021-09-22T00:23:17Z,42.805,6.029,13.3004,4.60080,2470.413,2021-9-22T02:24:38Z
2021-09-22T00:26:20Z,42.805,6.029,13.3029,4.60062,2470.404,2021-9-22T02:27:41Z
2021-09-22T00:29:23Z,42.805,6.029,13.3026,4.60090,2470.39,2021-9-22T02:30:45Z
2021-09-22T00:32:26Z,42.805,6.029,13.3011,4.60078,2470.427,2021-9-22T02:33:48Z
2021-09-22T00:35:29Z,42.805,6.029,13.3006,4.60056,2470.413,2021-9-22T02:36:51Z
2021-09-22T00:38:32Z,42.805,6.029,13.3009,4.60068,2470.404,2021-9-22T02:39:54Z
2021-09-22T00:41:36Z,42.805,6.029,13.3021,4.60088,2470.413,2021-9-22T02:42:57Z
2021-09-22T00:44:39Z,42.805,6.029,13.3017,4.60099,2470.413,2021-9-22T02:46:00Z
2021-09-22T00:47:42Z,42.805,6.029,13.3026,4.60038,2470.413,2021-9-22T02:49:03Z
2021-09-22T00:50:45Z,42.805,6.029,13.3010,4.60054,2470.404,2021-9-22T02:52:06Z
2021-09-22T00:53:48Z,42.805,6.029,13.3015,4.60064,2470.39,2021-9-22T02:55:10Z
2021-09-22T00:56:51Z,42.805,6.029,13.3006,4.60057,2470.39,2021-9-22T02:58:13Z
2021-09-22T00:59:54Z,42.805,6.029,13.3014,4.60083,2470.404,2021-9-22T03:01:16Z
2021-09-22T01:02:57Z,42.805,6.029,13.3009,4.60087,2470.404,2021-9-22T03:04:19Z
2021-09-22T01:06:01Z,42.805,6.029,13.3009,4.60099,2470.404,2021-9-22T03:07:22Z
2021-09-22T01:09:04Z,42.805,6.029,13.3017,4.60087,2470.413,2021-9-22T03:10:25Z
2021-09-22T01:12:07Z,42.805,6.029,13.3016,4.60112,2470.366,2021-9-22T03:13:28Z
2021-09-22T01:15:10Z,42.805,6.029,13.3009,4.60100,2470.413,2021-9-22T03:16:31Z
2021-09-22T01:18:13Z,42.805,6.029,13.3020,4.60109,2470.404,2021-9-22T03:19:35Z
2021-09-22T01:21:16Z,42.805,6.029,13.3007,4.60092,2470.39,2021-9-22T03:22:38Z
2021-09-22T01:24:19Z,42.805,6.029,13.3014,4.60059,2470.366,2021-9-22T03:25:41Z
2021-09-22T01:27:22Z,42.805,6.029,13.3007,4.60037,2470.427,2021-9-22T03:28:44Z
2021-09-22T01:30:26Z,42.805,6.029,13.3006,4.60108,2470.404,2021-9-22T03:31:47Z
2021-09-22T01:33:29Z,42.805,6.029,13.3016,4.60055,2470.343,2021-9-22T03:34:50Z
2021-09-22T01:36:32Z,42.805,6.029,13.3009,4.60077,2470.394,2021-9-22T03:37:53Z
2021-09-22T01:39:35Z,42.805,6.029,13.3012,4.60105,2470.404,2021-9-22T03:40:56Z
2021-09-22T01:42:38Z,42.805,6.029,13.3011,4.60077,2470.366,2021-9-22T03:44:00Z
2021-09-22T01:45:41Z,42.805,6.029,13.3014,4.60044,2470.38,2021-9-22T03:47:03Z
2021-09-22T01:48:44Z,42.805,6.029,13.3000,4.60094,2470.343,2021-9-22T03:50:06Z
2021-09-22T01:51:47Z,42.805,6.029,13.3011,4.60103,2470.38,2021-9-22T03:53:09Z
2021-09-22T01:54:50Z,42.805,6.029,13.3003,4.60082,2470.404,2021-9-22T03:56:12Z
2021-09-22T01:57:54Z,42.805,6.029,13.3005,4.60079,2470.343,2021-9-22T03:59:15Z
2021-09-22T02:00:57Z,42.805,6.029,13.2998,4.60070,2470.38,2021-9-22T04:02:18Z
2021-09-22T02:04:00Z,42.805,6.029,13.3010,4.60096,2470.366,2021-9-22T04:05:21Z
2021-09-22T02:07:03Z,42.805,6.029,13.3015,4.60072,2470.38,2021-9-22T04:08:25Z
2021-09-22T02:10:06Z,42.805,6.029,13.3007,4.60067,2470.343,2021-9-22T04:11:28Z
2021-09-22T02:13:09Z,42.805,6.029,13.3004,4.60067,2470.366,2021-9-22T04:14:31Z
2021-09-22T02:16:12Z,42.805,6.029,13.3009,4.60112,2470.366,2021-9-22T04:17:34Z
2021-09-22T02:19:15Z,42.805,6.029,13.3004,4.60084,2470.343,2021-9-22T04:20:37Z
2021-09-22T02:22:19Z,42.805,6.029,13.3004,4.60064,2470.366,2021-9-22T04:23:40Z
2021-09-22T02:25:22Z,42.805,6.029,13.3006,4.60064,2470.366,2021-9-22T04:26:43Z
2021-09-22T02:28:25Z,42.805,6.029,13.3011,4.60057,2470.366,2021-9-22T04:29:46Z
2021-09-22T02:31:28Z,42.805,6.029,13.3006,4.60052,2470.38,2021-9-22T04:32:50Z
2021-09-22T02:34:31Z,42.805,6.029,13.3006,4.60075,2470.366,2021-9-22T04:35:53Z
2021-09-22T02:37:34Z,42.805,6.029,13.3003,4.60085,2470.38,2021-9-22T04:38:56Z
2021-09-22T02:40:37Z,42.805,6.029,13.3009,4.60075,2470.366,2021-9-22T04:41:59Z
2021-09-22T02:43:40Z,42.805,6.029,13.3015,4.60096,2470.366,2021-9-22T04:45:02Z
2021-09-22T02:46:44Z,42.805,6.029,13.3000,4.60094,2470.38,2021-9-22T04:48:05Z
2021-09-22T02:49:47Z,42.805,6.029,13.3010,4.60106,2470.357,2021-9-22T04:51:08Z
2021-09-22T02:52:50Z,42.805,6.029,13.3027,4.60068,2470.366,2021-9-22T04:54:11Z
2021-09-22T02:55:53Z,42.805,6.029,13.3006,4.60086,2470.38,2021-9-22T04:57:15Z
2021-09-22T02:58:56Z,42.805,6.029,13.3015,4.60089,2470.38,2021-9-22T05:00:18Z
2021-09-22T03:01:59Z,42.805,6.029,13.3011,4.60084,2470.38,2021-9-22T05:03:21Z
2021-09-22T03:05:02Z,42.805,6.029,13.3009,4.60091,2470.343,2021-9-22T05:06:24Z
2021-09-22T03:08:05Z,42.805,6.029,13.3007,4.60083,2470.334,2021-9-22T05:09:27Z
2021-09-22T03:11:09Z,42.805,6.029,13.3004,4.60035,2470.366,2021-9-22T05:12:30Z
2021-09-22T03:14:12Z,42.805,6.029,13.3010,4.60069,2470.404,2021-9-22T05:15:33Z
2021-09-22T03:17:15Z,42.805,6.029,13.3011,4.60076,2470.366,2021-9-22T05:18:36Z
2021-09-22T03:20:18Z,42.805,6.029,13.3001,4.60072,2470.357,2021-9-22T05:21:40Z
2021-09-22T03:23:21Z,42.805,6.029,13.3004,4.60060,2470.404,2021-9-22T05:24:43Z
2021-09-22T03:26:24Z,42.805,6.029,13.3000,4.60058,2470.427,2021-9-22T05:27:46Z
2021-09-22T03:29:27Z,42.805,6.029,13.2998,4.60056,2470.366,2021-9-22T05:30:49Z
2021-09-22T03:32:30Z,42.805,6.029,13.3004,4.60061,2470.38,2021-9-22T05:33:52Z
2021-09-22T03:35:34Z,42.805,6.029,13.3009,4.60080,2470.38,2021-9-22T05:36:55Z
2021-09-22T03:38:37Z,42.805,6.029,13.3017,4.60067,2470.38,2021-9-22T05:39:58Z
2021-09-22T03:41:40Z,42.805,6.029,13.3024,4.60081,2470.366,2021-9-22T05:43:01Z
2021-09-22T03:44:43Z,42.805,6.029,13.3014,4.60063,2470.366,2021-9-22T05:46:04Z
2021-09-22T03:47:46Z,42.805,6.029,13.3001,4.60066,2470.343,2021-9-22T05:49:08Z
2021-09-22T03:50:49Z,42.805,6.029,13.3004,4.60066,2470.39,2021-9-22T05:52:11Z
2021-09-22T03:53:52Z,42.805,6.029,13.3006,4.60045,2470.39,2021-9-22T05:55:14Z
2021-09-22T03:56:55Z,42.805,6.029,13.3003,4.60055,2470.38,2021-9-22T05:58:17Z
2021-09-22T03:59:59Z,42.805,6.029,13.3002,4.60037,2470.38,2021-9-22T06:01:20Z
2021-09-22T04:03:02Z,42.805,6.029,13.3025,4.60044,2470.366,2021-9-22T06:04:23Z
2021-09-22T04:06:05Z,42.805,6.029,13.3004,4.60077,2470.366,2021-9-22T06:07:26Z
2021-09-22T04:09:08Z,42.805,6.029,13.3001,4.60054,2470.413,2021-9-22T06:10:29Z
2021-09-22T04:12:11Z,42.805,6.029,13.3000,4.60064,2470.38,2021-9-22T06:13:33Z
2021-09-22T04:15:14Z,42.805,6.029,13.2997,4.60060,2470.39,2021-9-22T06:16:36Z
2021-09-22T04:18:17Z,42.805,6.029,13.3006,4.60063,2470.427,2021-9-22T06:19:39Z
2021-09-22T04:21:20Z,42.805,6.029,13.2999,4.60077,2470.413,2021-9-22T06:22:42Z
2021-09-22T04:24:24Z,42.805,6.029,13.2999,4.60096,2470.413,2021-9-22T06:25:45Z
2021-09-22T04:27:27Z,42.805,6.029,13.3003,4.60072,2470.404,2021-9-22T06:28:48Z
2021-09-22T04:30:30Z,42.805,6.029,13.3003,4.60072,2470.38,2021-9-22T06:31:51Z
2021-09-22T04:33:33Z,42.805,6.029,13.3006,4.60090,2470.39,2021-9-22T06:34:54Z
2021-09-22T04:36:36Z,42.805,6.029,13.3003,4.60107,2470.45,2021-9-22T06:37:58Z
2021-09-22T04:39:39Z,42.805,6.029,13.3004,4.60061,2470.39,2021-9-22T06:41:01Z
2021-09-22T04:42:42Z,42.805,6.029,13.3009,4.60073,2470.45,2021-9-22T06:44:04Z
2021-09-22T04:45:45Z,42.805,6.029,13.3005,4.60063,2470.38,2021-9-22T06:47:07Z
2021-09-22T04:48:48Z,42.805,6.029,13.3016,4.60095,2470.413,2021-9-22T06:50:10Z
2021-09-22T04:51:52Z,42.805,6.029,13.3012,4.60107,2470.427,2021-9-22T06:53:13Z
2021-09-22T04:54:55Z,42.805,6.029,13.3023,4.60073,2470.45,2021-9-22T06:56:16Z
2021-09-22T04:57:58Z,42.805,6.029,13.3024,4.60077,2470.427,2021-9-22T06:59:19Z
2021-09-22T05:01:01Z,42.805,6.029,13.3024,4.60102,2470.427,2021-9-22T07:02:23Z
2021-09-22T05:04:04Z,42.805,6.029,13.3026,4.60096,2470.404,2021-9-22T07:05:26Z
2021-09-22T05:07:07Z,42.805,6.029,13.3024,4.60086,2470.427,2021-9-22T07:08:29Z
2021-09-22T05:10:10Z,42.805,6.029,13.3029,4.60123,2470.45,2021-9-22T07:11:32Z
2021-09-22T05:13:13Z,42.805,6.029,13.3019,4.60092,2470.404,2021-9-22T07:14:35Z
2021-09-22T05:16:17Z,42.805,6.029,13.3006,4.60107,2470.437,2021-9-22T07:17:38Z
2021-09-22T05:19:20Z,42.805,6.029,13.3019,4.60102,2470.45,2021-9-22T07:20:41Z
2021-09-22T05:22:23Z,42.805,6.029,13.3015,4.60084,2470.437,2021-9-22T07:23:44Z
2021-09-22T05:25:26Z,42.805,6.029,13.3019,4.60069,2470.427,2021-9-22T07:26:47Z
2021-09-22T05:28:29Z,42.805,6.029,13.3009,4.60099,2470.46,2021-9-22T07:29:51Z
2021-09-22T05:31:32Z,42.805,6.029,13.3038,4.60125,2470.46,2021-9-22T07:32:54Z
2021-09-22T05:34:35Z,42.805,6.029,13.3009,4.60109,2470.404,2021-9-22T07:35:57Z
2021-09-22T05:37:38Z,42.805,6.029,13.3026,4.60066,2470.483,2021-9-22T07:39:00Z
2021-09-22T05:40:42Z,42.805,6.029,13.3031,4.60052,2470.483,2021-9-22T07:42:03Z
2021-09-22T05:43:45Z,42.805,6.029,13.3033,4.60068,2470.45,2021-9-22T07:45:06Z
2021-09-22T05:46:48Z,42.805,6.029,13.3018,4.60074,2470.474,2021-9-22T07:48:09Z
2021-09-22T05:49:51Z,42.805,6.029,13.3024,4.60104,2470.437,2021-9-22T07:51:12Z
2021-09-22T05:52:54Z,42.805,6.029,13.3026,4.60071,2470.427,2021-9-22T07:54:16Z
2021-09-22T05:55:57Z,42.805,6.029,13.3065,4.60084,2470.46,2021-9-22T07:57:19Z
2021-09-22T05:59:00Z,42.805,6.029,13.3031,4.60104,2470.483,2021-9-22T08:00:22Z
2021-09-22T06:02:03Z,42.805,6.029,13.3029,4.60084,2470.497,2021-9-22T08:03:25Z
2021-09-22T06:05:07Z,42.805,6.029,13.3026,4.60099,2470.483,2021-9-22T08:06:28Z
2021-09-22T06:08:10Z,42.805,6.029,13.3027,4.60072,2470.483,2021-9-22T08:09:31Z
2021-09-22T06:11:13Z,42.805,6.029,13.3037,4.60049,2470.474,2021-9-22T08:12:34Z
2021-09-22T06:14:16Z,42.805,6.029,13.3014,4.60075,2470.483,2021-9-22T08:15:37Z
2021-09-22T06:17:19Z,42.805,6.029,13.3014,4.60101,2470.497,2021-9-22T08:18:41Z
2021-09-22T06:20:22Z,42.805,6.029,13.3015,4.60069,2470.483,2021-9-22T08:21:44Z
2021-09-22T06:23:25Z,42.805,6.029,13.3011,4.60062,2470.507,2021-9-22T08:24:47Z
2021-09-22T06:26:28Z,42.805,6.029,13.3038,4.60065,2470.52,2021-9-22T08:27:50Z
2021-09-22T06:29:31Z,42.805,6.029,13.3046,4.60119,2470.483,2021-9-22T08:30:53Z
2021-09-22T06:32:35Z,42.805,6.029,13.3046,4.60062,2470.507,2021-9-22T08:33:56Z
2021-09-22T06:35:38Z,42.805,6.029,13.3026,4.60102,2470.507,2021-9-22T08:36:59Z
2021-09-22T06:38:41Z,42.805,6.029,13.3034,4.60091,2470.483,2021-9-22T08:40:02Z
2021-09-22T06:41:44Z,42.805,6.029,13.3014,4.60082,2470.474,2021-9-22T08:43:06Z
2021-09-22T06:44:47Z,42.805,6.029,13.3034,4.60061,2470.507,2021-9-22T08:46:09Z
2021-09-22T06:47:50Z,42.805,6.029,13.3046,4.60077,2470.53,2021-9-22T08:49:12Z
2021-09-22T06:50:53Z,42.805,6.029,13.3046,4.60059,2470.53,2021-9-22T08:52:15Z
2021-09-22T06:53:56Z,42.805,6.029,13.3025,4.60101,2470.507,2021-9-22T08:55:18Z
2021-09-22T06:57:00Z,42.805,6.029,13.3037,4.60079,2470.544,2021-9-22T08:58:21Z
2021-09-22T07:00:03Z,42.805,6.029,13.3045,4.60089,2470.507,2021-9-22T09:01:24Z
2021-09-22T07:03:06Z,42.805,6.029,13.3001,4.60105,2470.53,2021-9-22T09:04:27Z
2021-09-22T07:06:09Z,42.805,6.029,13.3025,4.60089,2470.497,2021-9-22T09:07:31Z
2021-09-22T07:09:12Z,42.805,6.029,13.3036,4.60075,2470.52,2021-9-22T09:10:34Z
2021-09-22T07:12:15Z,42.805,6.029,13.3047,4.60069,2470.52,2021-9-22T09:13:37Z
2021-09-22T07:15:18Z,42.805,6.029,13.3017,4.60086,2470.53,2021-9-22T09:16:40Z
2021-09-22T07:18:21Z,42.805,6.029,13.3034,4.60075,2470.567,2021-9-22T09:19:43Z
2021-09-22T07:21:25Z,42.805,6.029,13.3030,4.60084,2470.52,2021-9-22T09:22:46Z
2021-09-22T07:24:28Z,42.805,6.029,13.3042,4.60089,2470.553,2021-9-22T09:25:49Z
2021-09-22T07:27:31Z,42.805,6.029,13.3046,4.60092,2470.53,2021-9-22T09:28:52Z
2021-09-22T07:30:34Z,42.805,6.029,13.3058,4.60072,2470.507,2021-9-22T09:31:56Z
2021-09-22T07:33:37Z,42.805,6.029,13.3054,4.60081,2470.497,2021-9-22T09:34:59Z
2021-09-22T07:36:40Z,42.805,6.029,13.3051,4.60110,2470.53,2021-9-22T09:38:02Z
2021-09-22T07:39:43Z,42.805,6.029,13.3055,4.60058,2470.507,2021-9-22T09:41:05Z
2021-09-22T07:42:46Z,42.805,6.029,13.3060,4.60076,2470.52,2021-9-22T09:44:08Z
2021-09-22T07:45:50Z,42.805,6.029,13.3069,4.60086,2470.507,2021-9-22T09:47:11Z
2021-09-22T07:48:53Z,42.805,6.029,13.3069,4.60075,2470.53,2021-9-22T09:50:14Z
2021-09-22T07:51:56Z,42.805,6.029,13.3056,4.60069,2470.544,2021-9-22T09:53:17Z
2021-09-22T07:54:59Z,42.805,6.029,13.3062,4.60114,2470.544,2021-9-22T09:56:20Z
2021-09-22T07:58:02Z,42.805,6.029,13.3069,4.60087,2470.474,2021-9-22T09:59:24Z
2021-09-22T08:01:05Z,42.805,6.029,13.3074,4.60054,2470.553,2021-9-22T10:02:27Z
2021-09-22T08:04:08Z,42.805,6.029,13.3050,4.60076,2470.544,2021-9-22T10:05:30Z
2021-09-22T08:07:11Z,42.805,6.029,13.3072,4.60092,2470.53,2021-9-22T10:08:33Z
2021-09-22T08:10:15Z,42.805,6.029,13.3050,4.60081,2470.544,2021-9-22T10:11:36Z
2021-09-22T08:13:18Z,42.805,6.029,13.3042,4.60091,2470.53,2021-9-22T10:14:39Z
2021-09-22T08:16:21Z,42.805,6.029,13.3066,4.60072,2470.52,2021-9-22T10:17:42Z
2021-09-22T08:19:24Z,42.805,6.029,13.3059,4.60062,2470.53,2021-9-22T10:20:46Z
2021-09-22T08:22:27Z,42.805,6.029,13.3036,4.60077,2470.507,2021-9-22T10:23:49Z
2021-09-22T08:25:30Z,42.805,6.029,13.3043,4.60090,2470.497,2021-9-22T10:26:52Z
2021-09-22T08:28:33Z,42.805,6.029,13.3021,4.60094,2470.544,2021-9-22T10:29:55Z
2021-09-22T08:31:36Z,42.805,6.029,13.3072,4.60102,2470.544,2021-9-22T10:32:58Z
2021-09-22T08:34:40Z,42.805,6.029,13.3027,4.60078,2470.53,2021-9-22T10:36:01Z
2021-09-22T08:37:43Z,42.805,6.029,13.3057,4.60062,2470.544,2021-9-22T10:39:04Z
2021-09-22T08:40:46Z,42.805,6.029,13.3038,4.60062,2470.53,2021-9-22T10:42:07Z
2021-09-22T08:43:49Z,42.805,6.029,13.3055,4.60062,2470.544,2021-9-22T10:45:11Z
2021-09-22T08:46:52Z,42.805,6.029,13.3060,4.60058,2470.52,2021-9-22T10:48:14Z
2021-09-22T08:49:55Z,42.805,6.029,13.3023,4.60063,2470.544,2021-9-22T10:51:17Z
2021-09-22T08:52:58Z,42.805,6.029,13.3014,4.60094,2470.52,2021-9-22T10:54:20Z
2021-09-22T08:56:01Z,42.805,6.029,13.3008,4.60097,2470.507,2021-9-22T10:57:23Z
2021-09-22T08:59:05Z,42.805,6.029,13.3001,4.60087,2470.544,2021-9-22T11:00:26Z
2021-09-22T09:02:08Z,42.805,6.029,13.3017,4.60125,2470.53,2021-9-22T11:03:29Z
2021-09-22T09:05:11Z,42.805,6.029,13.3024,4.60071,2470.474,2021-9-22T11:06:32Z
2021-09-22T09:08:14Z,42.805,6.029,13.3035,4.60095,2470.52,2021-9-22T11:09:36Z
2021-09-22T09:11:17Z,42.805,6.029,13.3041,4.60045,2470.497,2021-9-22T11:12:39Z
2021-09-22T09:14:20Z,42.805,6.029,13.3063,4.60039,2470.52,2021-9-22T11:15:42Z
2021-09-22T09:17:23Z,42.805,6.029,13.3041,4.60058,2470.52,2021-9-22T11:18:45Z
2021-09-22T09:20:26Z,42.805,6.029,13.3030,4.60074,2470.483,2021-9-22T11:21:48Z
2021-09-22T09:23:30Z,42.805,6.029,13.3060,4.60083,2470.507,2021-9-22T11:24:51Z
2021-09-22T09:26:33Z,42.805,6.029,13.3084,4.60073,2470.45,2021-9-22T11:27:54Z
2021-09-22T09:29:36Z,42.805,6.029,13.3037,4.60125,2470.483,2021-9-22T11:30:57Z
2021-09-22T09:32:39Z,42.805,6.029,13.3057,4.60074,2470.507,2021-9-22T11:34:01Z
2021-09-22T09:35:42Z,42.805,6.029,13.3066,4.60067,2470.483,2021-9-22T11:37:04Z
2021-09-22T09:38:45Z,42.805,6.029,13.3051,4.60046,2470.46,2021-9-22T11:40:07Z
2021-09-22T09:41:48Z,42.805,6.029,13.3030,4.60135,2470.423,2021-9-22T11:43:10Z
2021-09-22T09:44:51Z,42.805,6.029,13.3060,4.60064,2470.483,2021-9-22T11:46:13Z
2021-09-22T09:47:55Z,42.805,6.029,13.3049,4.60105,2470.497,2021-9-22T11:49:16Z
2021-09-22T09:50:58Z,42.805,6.029,13.3046,4.60092,2470.437,2021-9-22T11:52:19Z
2021-09-22T09:54:01Z,42.805,6.029,13.3046,4.60100,2470.45,2021-9-22T11:55:22Z
2021-09-22T09:57:04Z,42.805,6.029,13.3063,4.60076,2470.474,2021-9-22T11:58:26Z
2021-09-22T10:00:07Z,42.805,6.029,13.3046,4.60104,2470.474,2021-9-22T12:01:29Z
2021-09-22T10:03:10Z,42.805,6.029,13.3056,4.60079,2470.45,2021-9-22T12:04:32Z
2021-09-22T10:06:13Z,42.805,6.029,13.3060,4.60081,2470.497,2021-9-22T12:07:35Z
2021-09-22T10:09:16Z,42.805,6.029,13.3054,4.60082,2470.474,2021-9-22T12:10:38Z
2021-09-22T10:12:20Z,42.805,6.029,13.3069,4.60047,2470.427,2021-9-22T12:13:41Z
2021-09-22T10:15:23Z,42.805,6.029,13.3041,4.60058,2470.474,2021-9-22T12:16:44Z
2021-09-22T10:18:26Z,42.805,6.029,13.3024,4.60079,2470.474,2021-9-22T12:19:47Z
2021-09-22T10:21:29Z,42.805,6.029,13.3041,4.60067,2470.437,2021-9-22T12:22:51Z
2021-09-22T10:24:32Z,42.805,6.029,13.3048,4.60074,2470.45,2021-9-22T12:25:54Z
2021-09-22T10:27:35Z,42.805,6.029,13.3046,4.60081,2470.437,2021-9-22T12:28:57Z
2021-09-22T10:30:38Z,42.805,6.029,13.3036,4.60062,2470.45,2021-9-22T12:32:00Z
2021-09-22T10:33:42Z,42.805,6.029,13.3073,4.60027,2470.437,2021-9-22T12:35:03Z
2021-09-22T10:36:45Z,42.805,6.029,13.3030,4.60031,2470.427,2021-9-22T12:38:06Z
2021-09-22T10:39:48Z,42.805,6.029,13.3007,4.60050,2470.427,2021-9-22T12:41:09Z
2021-09-22T10:42:51Z,42.805,6.029,13.3057,4.60062,2470.413,2021-9-22T12:44:12Z
2021-09-22T10:45:54Z,42.805,6.029,13.3059,4.60091,2470.427,2021-9-22T12:47:16Z
2021-09-22T10:48:57Z,42.805,6.029,13.3032,4.60063,2470.427,2021-9-22T12:50:19Z
2021-09-22T10:52:00Z,42.805,6.029,13.3039,4.60129,2470.39,2021-9-22T12:53:22Z
2021-09-22T10:55:03Z,42.805,6.029,13.3033,4.60094,2470.45,2021-9-22T12:56:25Z
2021-09-22T10:58:07Z,42.805,6.029,13.3056,4.60092,2470.404,2021-9-22T12:59:28Z
2021-09-22T11:01:10Z,42.805,6.029,13.3059,4.60074,2470.413,2021-9-22T13:02:31Z
2021-09-22T11:04:13Z,42.805,6.029,13.3079,4.60057,2470.45,2021-9-22T13:05:34Z
2021-09-22T11:07:16Z,42.805,6.029,13.3041,4.60064,2470.427,2021-9-22T13:08:37Z
2021-09-22T11:10:19Z,42.805,6.029,13.3059,4.60050,2470.45,2021-9-22T13:11:41Z
2021-09-22T11:13:22Z,42.805,6.029,13.3041,4.60040,2470.39,2021-9-22T13:14:44Z
2021-09-22T11:16:25Z,42.805,6.029,13.3045,4.60038,2470.413,2021-9-22T13:17:47Z
2021-09-22T11:19:28Z,42.805,6.029,13.3052,4.60079,2470.45,2021-9-22T13:20:50Z
2021-09-22T11:22:32Z,42.805,6.029,13.3030,4.60047,2470.413,2021-9-22T13:23:53Z
2021-09-22T11:25:35Z,42.805,6.029,13.3015,4.60033,2470.404,2021-9-22T13:26:56Z
2021-09-22T11:28:38Z,42.805,6.029,13.3022,4.60027,2470.413,2021-9-22T13:29:59Z
2021-09-22T11:31:41Z,42.805,6.029,13.3034,4.60052,2470.45,2021-9-22T13:33:02Z
2021-09-22T11:34:44Z,42.805,6.029,13.3015,4.60060,2470.441,2021-9-22T13:36:06Z
2021-09-22T11:37:47Z,42.805,6.029,13.3022,4.60034,2470.404,2021-9-22T13:39:09Z
2021-09-22T11:40:50Z,42.805,6.029,13.3031,4.60036,2470.413,2021-9-22T13:42:12Z
2021-09-22T11:43:53Z,42.805,6.029,13.3035,4.60017,2470.413,2021-9-22T13:45:15Z
2021-09-22T11:46:57Z,42.805,6.029,13.3015,4.60021,2470.39,2021-9-22T13:48:18Z
2021-09-22T11:50:00Z,42.805,6.029,13.3029,4.60057,2470.404,2021-9-22T13:51:21Z
2021-09-22T11:53:03Z,42.805,6.029,13.3030,4.60049,2470.38,2021-9-22T13:54:24Z
2021-09-22T11:56:06Z,42.805,6.029,13.3029,4.60049,2470.39,2021-9-22T13:57:28Z
2021-09-22T11:59:09Z,42.805,6.029,13.3022,4.60028,2470.413,2021-9-22T14:00:31Z
2021-09-22T12:02:12Z,42.805,6.029,13.3011,4.60037,2470.404,2021-9-22T14:03:34Z
2021-09-22T12:05:15Z,42.805,6.029,13.3029,4.60063,2470.404,2021-9-22T14:06:37Z
2021-09-22T12:08:18Z,42.805,6.029,13.3029,4.60052,2470.366,2021-9-22T14:09:40Z
2021-09-22T12:11:22Z,42.805,6.029,13.3041,4.60047,2470.38,2021-9-22T14:12:43Z
2021-09-22T12:14:25Z,42.805,6.029,13.3019,4.60088,2470.404,2021-9-22T14:15:46Z
2021-09-22T12:17:28Z,42.805,6.029,13.3034,4.60044,2470.39,2021-9-22T14:18:49Z
2021-09-22T12:20:31Z,42.805,6.029,13.3034,4.60044,2470.366,2021-9-22T14:21:53Z
2021-09-22T12:23:34Z,42.805,6.029,13.3024,4.60039,2470.366,2021-9-22T14:24:56Z
2021-09-22T12:26:37Z,42.805,6.029,13.3026,4.60057,2470.366,2021-9-22T14:27:59Z
2021-09-22T12:29:40Z,42.805,6.029,13.3009,4.60036,2470.366,2021-9-22T14:31:02Z
2021-09-22T12:32:43Z,42.805,6.029,13.3015,4.60062,2470.366,2021-9-22T14:34:05Z
2021-09-22T12:35:47Z,42.805,6.029,13.3031,4.60062,2470.38,2021-9-22T14:37:08Z
2021-09-22T12:38:50Z,42.805,6.029,13.3036,4.60061,2470.404,2021-9-22T14:40:11Z
2021-09-22T12:41:53Z,42.805,6.029,13.3045,4.60024,2470.39,2021-9-22T14:43:14Z
2021-09-22T12:44:56Z,42.805,6.029,13.3025,4.60040,2470.39,2021-9-22T14:46:18Z
2021-09-22T12:47:59Z,42.805,6.029,13.3006,4.60050,2470.38,2021-9-22T14:49:21Z
2021-09-22T12:51:02Z,42.805,6.029,13.3009,4.60040,2470.404,2021-9-22T14:52:24Z
2021-09-22T12:54:05Z,42.805,6.029,13.3014,4.60054,2470.366,2021-9-22T14:55:27Z
2021-09-22T12:57:09Z,42.805,6.029,13.3036,4.60074,2470.357,2021-9-22T14:58:30Z
2021-09-22T13:00:12Z,42.805,6.029,13.3033,4.60031,2470.357,2021-9-22T15:01:33Z
2021-09-22T13:03:15Z,42.805,6.029,13.3036,4.60017,2470.38,2021-9-22T15:04:36Z
2021-09-22T13:06:18Z,42.805,6.029,13.3008,4.60021,2470.357,2021-9-22T15:07:39Z
2021-09-22T13:09:21Z,42.805,6.029,13.3013,4.60043,2470.343,2021-9-22T15:10:43Z
2021-09-22T13:12:24Z,42.805,6.029,13.3013,4.60042,2470.39,2021-9-22T15:13:46Z
2021-09-22T13:15:27Z,42.805,6.029,13.3006,4.60034,2470.38,2021-9-22T15:16:49Z
2021-09-22T13:18:30Z,42.805,6.029,13.3011,4.60031,2470.357,2021-9-22T15:19:52Z
2021-09-22T13:21:33Z,42.805,6.029,13.3019,4.60026,2470.357,2021-9-22T15:22:55Z
2021-09-22T13:24:37Z,42.805,6.029,13.3029,4.60033,2470.32,2021-9-22T15:25:58Z
2021-09-22T13:27:40Z,42.805,6.029,13.3026,4.60055,2470.334,2021-9-22T15:29:01Z
2021-09-22T13:30:43Z,42.805,6.029,13.3032,4.60069,2470.343,2021-9-22T15:32:04Z
2021-09-22T13:33:46Z,42.805,6.029,13.3029,4.60046,2470.357,2021-9-22T15:35:08Z
2021-09-22T13:36:49Z,42.805,6.029,13.3030,4.60041,2470.357,2021-9-22T15:38:11Z
2021-09-22T13:39:52Z,42.805,6.029,13.3068,4.60042,2470.343,2021-9-22T15:41:14Z
2021-09-22T13:42:55Z,42.805,6.029,13.3045,4.60055,2470.32,2021-9-22T15:44:17Z
2021-09-22T13:45:59Z,42.805,6.029,13.3070,4.60040,2470.343,2021-9-22T15:47:20Z
2021-09-22T13:49:02Z,42.805,6.029,13.3083,4.60038,2470.31,2021-9-22T15:50:23Z
2021-09-22T13:52:05Z,42.805,6.029,13.3076,4.60036,2470.343,2021-9-22T15:53:26Z
2021-09-22T13:55:08Z,42.805,6.029,13.3058,4.60036,2470.343,2021-9-22T15:56:29Z
2021-09-22T13:58:11Z,42.805,6.029,13.3034,4.60034,2470.366,2021-9-22T15:59:33Z
2021-09-22T14:01:14Z,42.805,6.029,13.3016,4.60055,2470.366,2021-9-22T16:02:36Z
2021-09-22T14:04:17Z,42.805,6.029,13.3015,4.60042,2470.38,2021-9-22T16:05:39Z
2021-09-22T14:07:20Z,42.805,6.029,13.3029,4.60042,2470.343,2021-9-22T16:08:42Z
2021-09-22T14:10:24Z,42.805,6.029,13.3036,4.60072,2470.334,2021-9-22T16:11:45Z
2021-09-22T14:13:27Z,42.805,6.029,13.3058,4.60073,2470.366,2021-9-22T16:14:48Z
2021-09-22T14:16:30Z,42.805,6.029,13.3063,4.60056,2470.343,2021-9-22T16:17:51Z
2021-09-22T14:19:33Z,42.805,6.029,13.3046,4.60037,2470.32,2021-9-22T16:20:54Z
2021-09-22T14:22:36Z,42.805,6.029,13.3046,4.60043,2470.32,2021-9-22T16:23:58Z
2021-09-22T14:25:39Z,42.805,6.029,13.3041,4.60040,2470.32,2021-9-22T16:27:01Z
2021-09-22T14:28:42Z,42.805,6.029,13.3048,4.60049,2470.38,2021-9-22T16:30:04Z
2021-09-22T14:31:45Z,42.805,6.029,13.3039,4.60063,2470.334,2021-9-22T16:33:07Z
2021-09-22T14:34:49Z,42.805,6.029,13.3016,4.60057,2470.357,2021-9-22T16:36:10Z
2021-09-22T14:37:52Z,42.805,6.029,13.3023,4.60045,2470.334,2021-9-22T16:39:13Z
2021-09-22T14:40:55Z,42.805,6.029,13.3048,4.60029,2470.334,2021-9-22T16:42:16Z
2021-09-22T14:43:58Z,42.805,6.029,13.3059,4.60044,2470.32,2021-9-22T16:45:20Z
2021-09-22T14:47:01Z,42.805,6.029,13.3037,4.60074,2470.366,2021-9-22T16:48:23Z
2021-09-22T14:50:04Z,42.805,6.029,13.3043,4.60026,2470.31,2021-9-22T16:51:26Z
2021-09-22T14:53:07Z,42.805,6.029,13.3057,4.60035,2470.357,2021-9-22T16:54:29Z
2021-09-22T14:56:10Z,42.805,6.029,13.3036,4.60057,2470.334,2021-9-22T16:57:32Z
2021-09-22T14:59:14Z,42.805,6.029,13.3029,4.60033,2470.357,2021-9-22T17:00:35Z
2021-09-22T15:02:17Z,42.805,6.029,13.3043,4.60045,2470.32,2021-9-22T17:03:38Z
2021-09-22T15:05:20Z,42.805,6.029,13.3048,4.60050,2470.32,2021-9-22T17:06:41Z
2021-09-22T15:08:23Z,42.805,6.029,13.3049,4.60054,2470.343,2021-9-22T17:09:45Z
2021-09-22T15:11:26Z,42.805,6.029,13.3046,4.60046,2470.357,2021-9-22T17:12:48Z
2021-09-22T15:14:29Z,42.805,6.029,13.3056,4.60098,2470.334,2021-9-22T17:15:51Z